User: anonymous   Login
Location: Caltech
(34.1382°N, 118.1253°W)
Time: 19:40:20
(UTC-07:00)
Language:

Oscar 16 - Orbit

View from above orbital plane
View from above orbital plane
View from above satellite
View from above satellite

Ground track
Ground track

The orbit data is extracted from the following two-line orbital elements,

1 20439U 90005D   15184.82394442  .00000053  00000-0  35366-4 0  9992
2 20439 098.5408 120.7751 0011978 109.2085 265.2784 14.32553028329122
Epoch (UTC): 03 July 2015 19:46:28
Eccentricity: 0.0011978
inclination: 98.5408°
perigee height: 774 km
apogee height: 792 km
right ascension of ascending node: 120.7751°
argument of perigee: 109.2085°
revolutions per day: 14.32553028
mean anomaly at epoch: 265.2784°
orbit number at epoch: 32912

The dashed part of the orbit path shows where the satellite is in the earth's shadow,  

DLR